Regional Weather Roundup
Issued by NWS Sterling, VA

Home | Current Version | Previous Version | Graphics & Text | Print | Product List | Glossary On
Versions: 1 2 3 4 5 6 7 8 9 10 11 12 13 14 15 16 17 18 19 20 21 22 23 24 25 26 27 28 29 30 31 32 33 34 35 36 37 38 39 40 41 42 43 44 45 46 47 48 49 50
000
ASUS41 KLWX 220310
RWRLWX

REGIONAL WEATHER ROUNDUP
NATIONAL WEATHER SERVICE BALTIMORE MD/WASHINGTON DC
1000 PM EST TUE FEB 21 2017

Note: "FAIR" indicates few or no clouds below 12,000 feet
with no significant weather and/or obstructions to visibility.
 TC=TEMPERATURE CELSIUS

 * =Non NWS site. Station does not report precipitation (e.g. rain,
    snow, etc.), thunder, or fog.

DCZ001-MDZ009-015-VAZ040>042-051-053>054-220400-
WASHINGTON METRO

CITY           SKY/WX    TMP DP  RH WIND       PRES   REMARKS
WASHINGTON NAT MOCLDY    48  39  71 S6        30.16F
DULLES         CLOUDY    47  36  65 S3        30.14S
ANDREWS AFB    MOCLDY    45  36  71 SE7       30.14F
FT BELVOIR     CLOUDY    46  36  67 CALM      30.14F
QUANTICO       CLOUDY    46  42  86 S8        30.16F
COLLEGE PARK*  CLOUDY    46  34  61 S3        30.15F
LEESBURG*      CLOUDY    50  39  66 MISG      30.14S
MANASSAS*      CLOUDY    46  38  73 S6        30.14F
GAITHERSBURG*  CLOUDY    46  32  57 S5        30.17S

$$

MDZ006>007-011-014-220400-
BALTIMORE METRO

CITY           SKY/WX    TMP DP  RH WIND       PRES   REMARKS
BWI AIRPORT    CLOUDY    46  37  71 SE3       30.15F
MD SCIENCE CTR   N/A     48  36  63 MISG      30.16F
MARTIN STATE   CLEAR     45  41  87 CALM      30.18F
ANNAPOLIS      CLOUDY    46  40  79 S9        30.16F
FORT MEADE*    CLOUDY    41  34  75 CALM      30.17F

$$

MDZ012-015-019>023-220400-
MARYLAND EASTERN SHORE

CITY           SKY/WX    TMP DP  RH WIND       PRES   REMARKS
OCEAN CITY     PTCLDY    43  39  86 CALM      30.19F
SALISBURY      CLOUDY    39  36  89 CALM      30.18F
BAY BRIDGE AP* CLOUDY    45  39  81 SE8       30.17F
EASTON*        CLOUDY    46  37  69 S6        30.21S

$$

MDZ017>025-220400-
SOUTHERN MARYLAND

CITY           SKY/WX    TMP DP  RH WIND       PRES   REMARKS
PATUXENT RIVER CLOUDY    44  40  85 S5        30.17F
ST INIGOES     CLOUDY    45  38  76 SE5       30.16F
LEONARDTOWN*   CLOUDY    43  37  81 CALM      30.17F

$$

MDZ003>005-220400-
NORTH CENTRAL MARYLAND

CITY           SKY/WX    TMP DP  RH WIND       PRES   REMARKS
FREDERICK*     CLOUDY    45  36  70 CALM      30.15F
HAGERSTOWN APT CLOUDY    51  35  54 S6        30.09F
WESTMINSTER*   CLOUDY    46  34  61 SE6       30.11F

$$

MDZ501>502-220400-
WESTERN MARYLAND

CITY           SKY/WX    TMP DP  RH WIND       PRES   REMARKS
OAKLAND*       CLOUDY    45  32  61 SE8       30.05S
CUMBERLAND*    PTCLDY    52  34  50 NW3       30.10S

$$

VAZ025>031-220400-
SHENANDOAH VALLEY

CITY           SKY/WX    TMP DP  RH WIND       PRES   REMARKS
WINCHESTER*    CLOUDY    50  34  53 SE7       30.08F
FRONT ROYAL*   CLOUDY    52  36  54 S3        30.08F
LURAY*         CLOUDY    52  39  62 SW6       30.09F
NEW MARKET*    CLOUDY    48  36  64 SW5       30.08F
STAUNTON*      CLOUDY    47  36  64 CALM      30.11F
WAYNESBORO*    PTCLDY    50  35  56 CALM      30.11S

$$

WVZ021-048>050-054>055-220400-
EASTERN WEST VIRGINIA PANHANDLE

CITY           SKY/WX    TMP DP  RH WIND       PRES   REMARKS
MARTINSBURG    CLOUDY    47  34  60 CALM      30.08F
PETERSBURG*    CLOUDY    56  40  54 S6        30.06F

$$

VAZ036>039-050-220400-
CENTRAL FOOTHILLS

CITY           SKY/WX    TMP DP  RH WIND       PRES   REMARKS
CHARLOTTESVILL PTCLDY    52  39  61 S6        30.11F
CULPEPER*      MOCLDY    45  38  75 CALM      30.13F
ORANGE*        CLOUDY    46  36  66 CALM      30.13F
GORDONSVILLE*  PTCLDY    43  38  82 CALM      30.12F
WARRENTON*     PTCLDY    46  35  67 CALM      30.12S

$$

VAZ055>057-220400-
NORTH AND CENTRAL PIEDMONT

CITY           SKY/WX    TMP DP  RH WIND       PRES   REMARKS
FREDERICKSBRG* MOCLDY    45  38  77 SE6       30.13F
STAFFORD*      CLOUDY    44  39  81 SE5       30.18F

$$

NCZ024-NYZ072-PAZ021-071-VAZ022-071-220400-
OTHER REGIONAL OBSERVATIONS

CITY           SKY/WX    TMP DP  RH WIND       PRES   REMARKS
NEW YORK CITY  CLOUDY    43  32  65 MISG      30.19F
PHILADELPHIA   MOCLDY    43  32  65 S5        30.19F
PITTSBURGH     CLOUDY    57  45  64 SE5       29.96F
ROANOKE        CLOUDY    53  38  56 CALM      30.14F
RICHMOND       MOCLDY    45  38  76 SE7       30.15F
RALEIGH        MOCLDY    53  39  59 SE6       30.14F

$$

ANZ530>537-220400-
MARINE OBSERVATIONS

STATION/POSITION TIME  TEMP    WIND        PRES
                       AIR SEA DIR/SP/G
                 (UTC) (F)     (DEG/KT/KT) (MB)
THOMAS PT LIGHT  0300   43 43  170/  9/ 10   N/A
BALT KEY BRIDGE  0248   46     160/ 12/ 14 1021.1F
COVE POINT       0248   43     180/ 11/ 12 1022.2F
LEWISETTA        0248   46 47  180/  6/  8 1021.2F
SOLOMONS ISLAND  0248   45 44  150/  6/  7   N/A
PINEY POINT      0248          160/  7/  8   N/A

$$




USA.gov is the U.S. government's official web portal to all federal, state and local government web resources and services.